Chicago Midway International Airport (MDW)


Airport Diagram
Current Weather/Forecast (VFR Conditions)
METAR KMDW 260053Z 29009KT 10SM BKN250 29/13 A2992 RMK AO2 SLP119 T02940128 $
TAF KMDW 252329Z 2600/2706 26005KT P6SM SCT300 FM261100 34005KT P6SM FEW300 FM261500 05006KT P6SM SKC FM261800 08009KT P6SM SKC FM262300 13007KT P6SM FEW250 FM270200 21005KT P6SM SCT250

All Charts
General
Chart Name Download
AIRPORT DIAGRAM
TAKEOFF MINIMUMS
ALTERNATE MINIMUMS
HOT SPOT

Departures
Chart Name Download
CICERO TWO
MIDWAY FIVE

Arrivals
Chart Name Download
ENDEE SIX (RNAV)
ENDEE SIX (RNAV), CONT.1
FISSK FOUR (RNAV)
GOSHEN SEVEN
MOTIF SIX
MOTIF SIX, CONT.1
PANGG THREE (RNAV)

Approaches
Chart Name Download
ILS OR LOC RWY 04R
ILS OR LOC RWY 13C
ILS OR LOC/DME RWY 31C
RNAV (RNP) X RWY 22L
RNAV (RNP) Y RWY 04R
RNAV (RNP) Y RWY 13C
RNAV (RNP) Y RWY 22L
RNAV (RNP) Y RWY 31C
RNAV (GPS) RWY 04L
RNAV (GPS) RWY 13L
RNAV (GPS) RWY 22R
RNAV (GPS) RWY 31R
RNAV (GPS) Z RWY 04R
RNAV (GPS) Z RWY 13C
RNAV (GPS) Z RWY 22L
RNAV (GPS) Z RWY 31C